Flight Track Log - Related Links

Times and Time Zones

All times are in EDT time to prevent confusion due to time zone crossing. See the SWA407 flight status page for this flight to view local times or setup timezone preferences in your user account.

Time Position Orientation Groundspeed Altitude Reporting Facility
EDT Latitude Longitude Course Direction KTS MPH feet Rate Location/Type
Mon 01:07:11 AM 32.7931 -117.2931 311° West 247 284 6,600  Level Los Angeles Center
Mon 01:08:12 AM 32.8381 -117.3653 307° West 267 307 11,800 4,488 Climbing Los Angeles Center
Mon 01:09:14 AM 32.8864 -117.4394 308° West 280 322 15,800 4,244 Climbing Los Angeles Center
Mon 01:10:15 AM 32.9678 -117.5144 322° Northwest 321 369 20,500 3,492 Climbing Los Angeles Center
Mon 01:11:16 AM 33.0542 -117.5572 337° Northwest 360 414 22,900 3,148 Climbing Los Angeles Center
Mon 01:12:17 AM 33.1608 -117.5806 350° North 388 447 26,900 2,711 Climbing Los Angeles Center
Mon 01:13:31 AM 33.2642 -117.6047 349° North 384 442 29,000 933 Climbing Los Angeles Center
Mon 01:14:32 AM 33.3875 -117.6319 350° North 378 435 29,000 -98 Level Los Angeles Center
Mon 01:15:33 AM 33.4922 -117.6558 349° North 382 440 28,800 -393 Descending Los Angeles Center
Mon 01:16:34 AM 33.6006 -117.6786 350° North 391 450 28,200 -585 Descending Los Angeles Center
Mon 01:17:36 AM 33.7083 -117.7019 350° North 396 456 27,600 -585 Descending Los Angeles Center
Mon 01:18:37 AM 33.8425 -117.7053 359° North 422 486 27,000 -295 Descending Los Angeles Center
Mon 01:19:38 AM 33.9381 -117.6119 39° Northeast 444 511 27,000  Level Los Angeles Center
Mon 01:20:39 AM 34.0339 -117.5178 39° Northeast 445 512 27,000  Level Los Angeles Center
Mon 01:21:40 AM 34.1283 -117.4231 40° Northeast 444 511 27,000  Level Los Angeles Center
Mon 01:22:42 AM 34.2242 -117.3264 40° Northeast 449 517 27,000  Level Los Angeles Center
Mon 01:23:43 AM 34.3222 -117.2289 39° Northeast 455 524 27,000  Level Los Angeles Center
Mon 01:24:44 AM 34.4211 -117.1281 40° Northeast 455 524 27,000  Level Los Angeles Center
Mon 01:25:45 AM 34.5150 -117.0325 40° Northeast 448 516 27,000  Level Los Angeles Center
Mon 01:26:46 AM 34.6083 -116.9386 40° Northeast 441 507 27,000  Level Los Angeles Center
Mon 01:27:48 AM 34.7003 -116.8433 40° Northeast 438 504 27,000 -98 Level Los Angeles Center
Mon 01:28:49 AM 34.8117 -116.7303 40° Northeast 438 504 26,800 -590 Descending Los Angeles Center
Mon 01:29:50 AM 34.9047 -116.6339 40° Northeast 439 505 25,800 -984 Descending Los Angeles Center
Mon 01:30:51 AM 34.9958 -116.5372 41° Northeast 439 505 24,800 -885 Descending Los Angeles Center
Mon 01:31:52 AM 35.0783 -116.4322 46° Northeast 433 498 24,000 -393 Descending Los Angeles Center
Mon 01:32:53 AM 35.1564 -116.3328 46° Northeast 421 484 24,000  Level Los Angeles Center
Mon 01:33:54 AM 35.2361 -116.2328 46° Northeast 415 478 24,000 -244 Level Los Angeles Center
Mon 01:34:56 AM 35.3172 -116.1306 46° Northeast 419 482 23,500 -1,415 Descending Los Angeles Center
Mon 01:35:57 AM 35.3944 -116.0317 46° Northeast 408 470 21,100 -2,410 Descending Los Angeles Center
Mon 01:36:58 AM 35.4706 -115.9353 46° Northeast 398 458 18,600 -2,508 Descending Los Angeles Center
Mon 01:37:59 AM 35.5508 -115.8361 45° Northeast 383 441 16,000 -2,727 Descending Los Angeles Center
Mon 01:38:15 AM 35.5744 -115.8053 47° Northeast 373 429 15,100 -2,164 Descending Los Angeles Center
Mon 01:39:00 AM 35.6194 -115.7489 46° Northeast 364 419 13,800 -1,791 Descending Los Angeles Center
Mon 01:39:22 AM 35.6525 -115.7064 46° Northeast 354 407 13,100 -787 Descending Los Angeles Center
Mon 01:40:01 AM 35.6819 -115.6586 53° Northeast 352 405 13,000 -1,200 Descending Los Angeles Center
Mon 01:41:02 AM 35.7531 -115.5464 52° Northeast 349 402 11,100 -1,525 Descending Los Angeles Center
Mon 01:42:03 AM 35.8092 -115.4575 52° Northeast 341 392 9,900 -1,220 Descending Los Angeles Center
Mon 01:43:05 AM 35.8600 -115.3786 51° Northeast 322 371 8,600 -1,073 Descending Los Angeles Center
Mon 01:44:06 AM 35.9086 -115.3031 52° Northeast 302 348 7,700 -1,180 Descending Los Angeles Center
Mon 01:45:07 AM 35.9764 -115.3147 352° North 279 321 6,200 -1,230 Descending Los Angeles Center
Mon 01:46:08 AM 36.0439 -115.3117 North 260 299 5,200 -1,024 Descending Los Angeles Center
Mon 01:47:10 AM 36.0722 -115.2706 50° Northeast 172 198 4,100 -1,036 Descending Los Angeles Center
Mon 01:47:58 AM 36.0744 -115.2342 86° East 137 158 3,300 -716 Descending Los Angeles Center
Mon 01:48:59 AM 36.0733 -115.1789 91° East 145 167 2,800 -492 Descending Los Angeles Center
Mon 01:50:00 AM 36.0801 -115.1523 90° East  Level Estimated
Mon 01:57:00 AM 36.0801 -115.1523 270° West  Level Estimated

Login

Don't have an account? Register now (free) for customized features, flight alerts, and more!